This is the latest recevied weather packets stored in our database for station/object KE4AMH. If no packets are shown the sender has not sent any weather packets the latest 10 day(s).
| Time | Temp. | Humidity | Pressure | Rain* | Wind** | Luminosity | Snow |
|---|---|---|---|---|---|---|---|
| 1778017170 | 25.56° C | 44% | 1013.4 hPa | 0 mm | - | 34 W/m² | - |
| 1778016868 | 26.11° C | 43% | 1013.3 hPa | 0 mm | - | 34 W/m² | - |
| 1778016564 | 25.56° C | 43% | 1013.3 hPa | 0 mm | - | 35 W/m² | - |
| 1778016261 | 25.56° C | 43% | 1013.2 hPa | 0 mm | - | 42 W/m² | - |
| 1778015957 | 25.56° C | 42% | 1013.3 hPa | 0 mm | - | 55 W/m² | - |
| 1778015655 | 26.11° C | 42% | 1013.4 hPa | 0 mm | - | 87 W/m² | - |
| 1778015351 | 26.11° C | 42% | 1013.3 hPa | 0 mm | - | 43 W/m² | - |
| 1778015048 | 26.11° C | 41% | 1013.3 hPa | 0 mm | - | 43 W/m² | - |
| 1778014745 | 26.11° C | 40% | 1013.3 hPa | 0 mm | - | 48 W/m² | - |
| 1778014444 | 26.67° C | 41% | 1013.3 hPa | 0 mm | - | 39 W/m² | - |
| 1778014140 | 26.11° C | 38% | 1013.7 hPa | 0 mm | - | 39 W/m² | - |
| 1778013838 | 26.67° C | 40% | 1013.7 hPa | 0 mm | - | 49 W/m² | - |
| 1778013535 | 26.67° C | 41% | 1013.6 hPa | 0 mm | - | 55 W/m² | - |
| 1778013231 | 26.11° C | 41% | 1013.7 hPa | 0 mm | - | 59 W/m² | - |
| 1778012928 | 26.67° C | 42% | 1013.6 hPa | 0 mm | - | 76 W/m² | - |
| 1778012624 | 26.67° C | 41% | 1013.7 hPa | 0 mm | - | 102 W/m² | - |
| 1778012321 | 26.67° C | 41% | 1013.7 hPa | 0 mm | - | 119 W/m² | - |
| 1778012018 | 26.11° C | 41% | 1013.8 hPa | 0 mm | - | 120 W/m² | - |
| 1778011716 | 26.67° C | 41% | 1013.9 hPa | 0 mm | - | 99 W/m² | - |
| 1778011413 | 26.67° C | 40% | 1013.9 hPa | 0 mm | - | 139 W/m² | - |
| 1778011109 | 26.67° C | 41% | 1014 hPa | 0 mm | - | 542 W/m² | - |
| 1778010806 | 26.67° C | 42% | 1014 hPa | 0 mm | - | 505 W/m² | - |
| 1778010503 | 26.67° C | 41% | 1014.3 hPa | 0 mm | - | 508 W/m² | - |
| 1778010200 | 26.67° C | 40% | 1014.4 hPa | 0 mm | - | 417 W/m² | - |
| 1778009895 | 26.67° C | 41% | 1014.6 hPa | 0 mm | - | 494 W/m² | - |
* Rain latest hour (hover to see other rain measurements)
** Current wind speed in m/s (hover to see current wind gust speed)